Powrót do katalogu

FENGYUN 1C DEB

AktywnySSO
NORAD 29750·DEBRIS·🇨🇳 China

Wystrzelony May 10, 1999 z Taiyuan Satellite Launch Center

Loading…

Następne Przeloty (najbliższe 24 godziny)

TLE

ŚwieżeSource: Space-Track

Epoka: Sep 13, 2026, 00:16 UTC

1 29750U 99025AQ  26256.01156358  .00000290  00000-0  18812-3 0  9992
2 29750  98.7296 282.2398 0034936 243.6101 180.0859 14.09858103  9269

Śledź FENGYUN 1C DEB w czasie rzeczywistym z AllMySat

Download on the App Store